Regional Weather Roundup
Issued by NWS Grand Forks, ND

Home | Current Version | Previous Version | Text Only | Print | Product List | Glossary Off
Versions: 1 2 3 4 5 6 7 8 9 10 11 12 13 14 15 16 17 18 19 20 21 22 23 24 25 26 27 28 29 30 31 32 33 34 35 36 37 38 39 40 41 42 43 44 45 46 47 48 49 50

000
ASUS43 KFGF 200710
RWRFGF
PRAIRIE TO PINES  WEATHER ROUNDUP
NATIONAL WEATHER SERVICE EASTERN NORTH DAKOTA/GRAND FORKS ND
100 AM CST SAT JAN 20 2018

 **SATELLITE DATA USED TO AUGMENT SKY COVER AT AUTOMATED STATIONS**
 *****  WEATHER ACROSS EASTERN NORTH DAKOTA  *****

CITY           SKY/WX    TMP DP  RH WIND       PRES   REMARKS
GRAND FORKS    FAIR      31  27  85 W13       29.68R WCI  21
GRAND FRKS AFB MOCLDY    31  26  80 W10       29.68S WCI  23
DEVILS LAKE    NOT AVBL
FARGO          FAIR      27  24  89 W7        29.72R WCI  19
WAHPETON ARPT  FAIR      23  21  93 W9        29.74R WCI  13
$$

 ***** WEATHER ACROSS CENTRAL AND WESTERN NORTH DAKOTA  *****

CITY           SKY/WX    TMP DP  RH WIND       PRES   REMARKS
BISMARCK       CLOUDY    36  31  82 W9        29.76S
MINOT          FAIR      32  24  72 SW13      29.67F WCI  22
JAMESTOWN      CLOUDY    33  27  78 W10       29.71S WCI  25
MINOT AFB      FAIR      31  24  75 W12       29.66S WCI  22
GARRISON         N/A     27  21  78 W5        29.71S WCI  22
WILLISTON      FAIR      33  27  78 W9        29.73R
DICKINSON      CLOUDY    34  31  88 W13       29.74R WCI  25
HETTINGER      CLOUDY    34  31  88 NW6       29.79R
$$

 *****  OTHER AIRPORT OBSERVATIONS IN OUR AREA  *****

CITY           SKY/WX    TMP DP  RH WIND       PRES   REMARKS
WALHALLA       FAIR      32  28  86 W7G14     29.64R
GRAFTON AIRPOR FAIR      27  25  93 SW7       29.69S WCI  19
VALLEY CITY AR CLOUDY    30  30 100 NW14      29.72S WCI  20
CANDO          PTSUNNY   25  25 100 W7        29.69S WCI  17
CAVALIER APRT    N/A     34  27  75 W12       29.65R
GWINNER          N/A     28  27  93 W12       29.73F WCI  18
SHEYENNE NWR     N/A     25  25 100 W6        29.95S WCI  18
ROLLA          FAIR      27  23  86 S9        29.64S WCI  17
 ***** THE ABOVE OBSERVATIONS ARE NON NWS ARE NOT QUALITY
       CONTROLLED AND MAY MIS-REPORT RAIN FOR SNOW...
$$

  *****  WEATHER ACROSS NORTHERN MINNESOTA  *****

CITY           SKY/WX    TMP DP  RH WIND       PRES   REMARKS
FLAG ISLAND    CLOUDY    34  28  80 W5        29.58R
WARROAD        CLOUDY    34  28  80 W12       29.62R
ROSEAU         MOCLDY    32  27  80 SW7       29.63R
HALLOCK        FAIR      25  21  86 SW8       29.65R WCI  16
THF RVR FALLS  FAIR      27  25  92 W9        29.67R WCI  18
BAUDETTE       CLOUDY    33  30  88 SW5       29.60R
WASKISH        FAIR      30  28  93 SW8       29.65R WCI  23
CROOKSTON      FAIR      27  25  93 W8        29.69S WCI  18
STEPHEN NDAWN    N/A     28  25  86 W10         N/A  WCI  19
GREENBUSH NDAW   N/A     27  23  86 W8          N/A  WCI  18
$$
  *****  WEATHER ACROSS CENTRAL AND WEST MINNESOTA  *****

CITY           SKY/WX    TMP DP  RH WIND       PRES   REMARKS
FOSSTON        FAIR      19  19 100 S6        29.69R WCI  11
BEMIDJI        FAIR      27  25  94 W5        29.66S WCI  21
PARK RAPIDS    FAIR      26  22  84 NW5       29.68R WCI  20
ELBOW LAKE     FAIR      26  25  95 SW7       29.74R WCI  19
WADENA         FAIR      23  23 100 CALM      29.70R
DETROIT LAKES  FAIR      32  28  86 NW3       29.70S
MOORHEAD       FAIR      25  23  93 CALM      29.73R
FERGUS FALLS   FOG       25  25 100 CALM      29.72R VSB 1/2
MORRIS MN      FAIR      27  27 100 W7        29.74R WCI  19
STAPLES        FAIR      23  23 100 NW6       29.69S WCI  16
$$
  *****  WEATHER ELSEWHERE ACROSS MINNESOTA  *****

CITY           SKY/WX    TMP DP  RH WIND       PRES   REMARKS
DULUTH         FAIR      33  29  85 NW13      29.63R WCI  24
INTRNTL FALLS  CLOUDY    35  29  78 SW8       29.60R
ELY            CLOUDY    34  28  80 W12G17    29.61R
CLOQUET        FAIR      34  27  75 NW8       29.65R
WHEATON        FAIR      30  27  86 W3        29.76S
BRAINERD       FAIR      28  25  88 SW3       29.69R
HIBBING        CLOUDY    34  29  82 W5        29.64R
ALEXANDRIA     FAIR      26  25  96 SW8       29.73R WCI  18
SAINT CLOUD    FAIR      29  26  89 W3        29.72R
MINNEAPOLIS    MOCLDY    31  28  89 CALM      29.74R
$$

  *****  WEATHER ACROSS SOUTH DAKOTA  *****

CITY           SKY/WX    TMP DP  RH WIND       PRES   REMARKS
SIOUX FALLS    FAIR      26  25  96 MISG      29.76R
BROOKINGS      FAIR      31  29  92 N3        29.76S
WATERTOWN      FAIR      27  25  92 S6        29.75S WCI  20
HURON          FAIR      28  26  92 CALM      29.78S
SISSETON         N/A     32  26  78 CALM      29.73R
ABERDEEN       FAIR      18  16  92 S5        29.77R WCI  11
MITCHELL       FAIR      31  29  92 W7        29.80R WCI  24
PIERRE         FAIR      31  30  96 W6        29.78R
MOBRIDGE       CLOUDY    36  32  85 NW5       29.75S
RAPID CITY     CLOUDY    34  31  88 N6        29.80S
$$

  *****  SOME WEATHER IN NEARBY STATES *****

CITY           SKY/WX    TMP DP  RH WIND       PRES   REMARKS
GLASGOW MT     FAIR      24  17  74 W3        29.75R
GREAT FALLS MT FAIR      27  18  69 SW14      29.80R WCI  16
CHEYENNE WY    FAIR      33  17  51 CALM      29.77S
SCOTTSBLUFF NE FAIR      33  30  88 CALM      29.76S
OMAHA NE       FAIR      33  27  78 S5        29.77F
DES MOINES IA  FAIR      33  26  75 SW6       29.78S
DAVENPORT IA   FAIR      39  28  64 SW10      29.81S
CHICAGO IL     FAIR      38  27  64 SW14      29.78R
EAU CLAIRE WI  FAIR      31  28  89 SW3       29.70R
LA CROSSE WI   FAIR      29  26  89 S6        29.72R WCI  23
$$

  *****  SOME NATIONAL WEATHER *****

CITY           SKY/WX    TMP DP  RH WIND       PRES   REMARKS
LA GUARDIA NY  FAIR      38  19  46 SW12      29.90F
RALEIGH NC     FAIR      30  23  75 SW5       30.14S
ATLANTA GA     FAIR      36  13  38 W8        30.23F
NEW ORLEANS LA FAIR      47  32  56 N3        30.23S
OKLAHOMA CITY  CLOUDY    51  47  86 S18G32    29.89F
ALBUQUERQUE NM FAIR      41  13  31 SE6       30.01F
SALT LAKE CITY LGT SNOW  33  31  92 NW13      29.94F VSB 1   WCI  24
LOS ANGELES CA FAIR      56  34  43 N7        29.93S
BOISE ID       FAIR      30  25  81 SE3       30.01R
SEATTLE WA     CLOUDY    44  39  82 SW13G23   29.94R
$$

*** WEATHER ACROSS MANITOBA...SASKATCHEWAN AND ONTARIO ***
                ***ONTARIO***

CITY           SKY/WX    TMP DP  RH WIND       PRES   REMARKS
GERALDTON      FLURRIES  19  14  79 NW13G24   29.44R WCI   7
THUNDER BAY    MOCLDY    37  30  75 W15       29.50R
SIOUX LOOKOUT  FLURRIES  23  19  86 NW8       29.55R WCI  14
TORONTO        PTCLDY    34  23  64 SW14G24   29.64S WCI  24
BIG TROUT LK   CLEAR    -13 -17  84 N5        29.65R WCI -25
PICKLE LAKE    NOT AVBL
DRYDEN         CLOUDY    25  21  86 W12G17    29.55R WCI  14
KENORA         CLOUDY    25  23  93 NW2       29.57R
$$
                *** MANITOBA***

CITY           SKY/WX    TMP DP  RH WIND       PRES   REMARKS
BRANDON        PTCLDY    19  18  93 W8        29.63R WCI   9
DAUPHIN        CLOUDY    19  18  93 CALM      29.65R
ISLAND LAKE    NOT AVBL
PILOT MOUND      N/A     30  25  80 W7          N/A  WCI  23
THE PAS        FLURRIES   5   0  78 E6        29.68R WCI  -6
THOMPSON       CLOUDY     0  -4  85 NE5       29.76S WCI -10
WINNIPEG       CLOUDY    27  23  86 NE13      29.61R WCI  16
LYNN LAKE      FLURRIES  -2  -4  92 E5        29.72S WCI -12
CHURCHILL      FLURRIES   1  -2  85 N12       29.87R WCI -15
GILLAM         FLURRIES   1  -2  85 NE7       29.78R WCI -11
$$
                ***SASKATCHEWAN***

CITY           SKY/WX    TMP DP  RH WIND       PRES   REMARKS
ESTEVAN        PTCLDY    19  16  86 SW8       29.68R WCI   9
KINDERSLEY     CLOUDY    23  18  80 SW6       29.62R WCI  16
LLOYDMINSTER   FLURRIES  28  23  80 W13       29.55R WCI  18
PRINCE ALBERT  CLOUDY    30  23  74 W6        29.56R WCI  24
REGINA         CLOUDY    27  23  86 W3        29.63R
YORKTON        PTCLDY    27  21  80 SW9       29.59R WCI  17
N. BATTLEFORD  CLOUDY    21  18  86 W2        29.58S
LA RONGE       LGT SNOW  10   9  92 NE12      29.60R WCI  -4
SASKATOON      CLOUDY    25  21  86 SW8       29.59R WCI  16
SWIFT CURRENT  PTCLDY    27  21  80 W14       29.63R WCI  15
$$
NOTE: THESE ARE AUTOMATED STATIONS WITH LIMITED QUALITY CONTROL
      "FAIR" INDICATES FEW OR NO CLOUDS BELOW 12,000 FEET WITH NO
      SIGNIFICANT WEATHER AND/OR OBSTRUCTIONS TO VISIBILITY.
      SKY/WX - SKY CONDITION AND SIGNIFICANT WEATHER.
      TMP - AIR TEMPERATURE.    DP   - DEWPOINT TEMPERATURE.
      RH  - RELATIVE HUMIDITY.  PRES - PRESSURE.
      HX  - HEAT INDEX.         WCI  - WIND CHILL INDEX.
$




USA.gov is the U.S. government's official web portal to all federal, state and local government web resources and services.